Location: Gouvernes
(48.8601°N, 2.6907°E)
Time: 04:40:38
(UTC+00:00)

Cosmos 1535 Rocket - Pass Details

Date: 16 October 2021
Orbit: 948 x 1004 km, 83.0° (Epoch: 30 November)

Event Time Altitude Azimuth Distance (km) Brightness Sun altitude
Rises 18:54:07 0° 182° (S) 3,646 7.4 -19.9°
Reaches altitude 10° 18:56:36 10° 182° (S) 2,711 6.7 -20.3°
Maximum altitude 19:02:48 79° 97° (E) 1,005 4.4 -21.3°
Drops below altitude 10° 19:09:09 10° 11° (NNE) 2,767 6.9 -22.4°
Sets 19:11:42 0° 11° (N) 3,727 7.6 -22.8°
